Time,TemperatureF,DewpointF,PressureIn,WindDirection,WindDirectionDegrees,WindSpeedMPH,WindSpeedGustMPH,Humidity,HourlyPrecipIn,Conditions,Clouds,dailyrainin,SoftwareType,DateUTC
2013-04-09 00:03:00,69.0,64.0,30.12,ENE,72,3.0,4.0,84,-99.99,,,-99.99,,2013-04-09 04:03:00,
2013-04-09 00:13:00,69.0,65.0,30.12,East,85,3.0,4.0,88,-99.99,,,-99.99,,2013-04-09 04:13:00,
2013-04-09 00:23:00,69.0,65.0,30.12,East,85,3.0,4.0,88,-99.99,,,-99.99,,2013-04-09 04:23:00,
2013-04-09 00:32:00,69.0,65.0,30.12,East,89,3.0,4.0,88,-99.99,,,-99.99,,2013-04-09 04:32:00,
2013-04-09 00:43:00,69.0,65.0,30.11,East,81,2.0,4.0,89,-99.99,,,-99.99,,2013-04-09 04:43:00,
2013-04-09 00:53:00,69.0,65.0,30.11,East,81,2.0,4.0,89,-99.99,,,-99.99,,2013-04-09 04:53:00,
2013-04-09 01:02:00,68.0,65.0,30.11,ENE,72,3.0,3.0,89,-99.99,,,-99.99,,2013-04-09 05:02:00,
2013-04-09 01:12:00,69.0,66.0,30.11,East,96,3.0,4.0,90,-99.99,,,-99.99,,2013-04-09 05:12:00,
2013-04-09 01:22:00,69.0,66.0,30.11,East,96,3.0,4.0,90,-99.99,,,-99.99,,2013-04-09 05:22:00,
2013-04-09 01:32:00,69.0,66.0,30.10,East,92,3.0,5.0,87,-99.99,,,-99.99,,2013-04-09 05:32:00,
2013-04-09 01:43:00,69.0,65.0,30.10,East,90,3.0,4.0,88,-99.99,,,-99.99,,2013-04-09 05:43:00,
2013-04-09 01:52:00,69.0,65.0,30.10,East,98,4.0,5.0,88,-99.99,,,-99.99,,2013-04-09 05:52:00,
2013-04-09 02:02:00,69.0,65.0,30.10,East,98,4.0,5.0,88,-99.99,,,-99.99,,2013-04-09 06:02:00,
2013-04-09 02:12:00,69.0,65.0,30.09,East,95,4.0,5.0,87,-99.99,,,-99.99,,2013-04-09 06:12:00,
2013-04-09 02:22:00,69.0,65.0,30.09,East,95,4.0,5.0,87,-99.99,,,-99.99,,2013-04-09 06:22:00,
2013-04-09 02:32:00,68.0,65.0,30.08,East,91,4.0,5.0,88,-99.99,,,-99.99,,2013-04-09 06:32:00,
2013-04-09 02:42:00,68.0,64.0,30.08,ENE,78,4.0,5.0,87,-99.99,,,-99.99,,2013-04-09 06:42:00,
2013-04-09 02:52:00,67.0,64.0,30.07,ENE,66,3.0,4.0,88,-99.99,,,-99.99,,2013-04-09 06:52:00,
2013-04-09 03:02:00,67.0,64.0,30.07,ENE,66,3.0,4.0,88,-99.99,,,-99.99,,2013-04-09 07:02:00,
2013-04-09 03:13:00,67.0,65.0,30.07,ESE,115,2.0,3.0,91,-99.99,,,-99.99,,2013-04-09 07:13:00,
2013-04-09 03:22:00,67.0,65.0,30.07,ESE,115,2.0,3.0,91,-99.99,,,-99.99,,2013-04-09 07:22:00,
2013-04-09 03:32:00,67.0,65.0,30.06,SE,146,2.0,3.0,93,-99.99,,,-99.99,,2013-04-09 07:32:00,
2013-04-09 03:42:00,67.0,66.0,30.06,ESE,105,1.0,2.0,95,-99.99,,,-99.99,,2013-04-09 07:42:00,
2013-04-09 03:53:00,66.0,65.0,30.05,ESE,113,2.0,2.0,96,-99.99,,,-99.99,,2013-04-09 07:53:00,
2013-04-09 04:03:00,66.0,65.0,30.05,ESE,113,2.0,2.0,96,-99.99,,,-99.99,,2013-04-09 08:03:00,
2013-04-09 04:13:00,66.0,65.0,30.05,ESE,109,3.0,5.0,96,-99.99,,,-99.99,,2013-04-09 08:13:00,
2013-04-09 04:22:00,66.0,65.0,30.05,ESE,109,3.0,5.0,96,-99.99,,,-99.99,,2013-04-09 08:22:00,
2013-04-09 04:32:00,67.0,65.0,30.05,East,100,4.0,5.0,95,-99.99,,,-99.99,,2013-04-09 08:32:00,
2013-04-09 04:42:00,67.0,65.0,30.04,East,90,4.0,5.0,93,-99.99,,,-99.99,,2013-04-09 08:42:00,
2013-04-09 04:52:00,68.0,65.0,30.04,East,89,4.0,5.0,90,-99.99,,,-99.99,,2013-04-09 08:52:00,
2013-04-09 05:02:00,68.0,65.0,30.04,East,89,4.0,5.0,90,-99.99,,,-99.99,,2013-04-09 09:02:00,
2013-04-09 05:12:00,68.0,65.0,30.04,East,95,5.0,6.0,89,-99.99,,,-99.99,,2013-04-09 09:12:00,
2013-04-09 05:22:00,68.0,65.0,30.04,East,95,5.0,6.0,89,-99.99,,,-99.99,,2013-04-09 09:22:00,
2013-04-09 05:33:00,68.0,65.0,30.05,East,89,3.0,5.0,89,-99.99,,,-99.99,,2013-04-09 09:33:00,
2013-04-09 05:43:00,68.0,65.0,30.05,ESE,111,3.0,4.0,89,-99.99,,,-99.99,,2013-04-09 09:43:00,
2013-04-09 05:53:00,68.0,66.0,30.06,East,85,1.0,2.0,92,-99.99,,,-99.99,,2013-04-09 09:53:00,
2013-04-09 06:04:00,68.0,66.0,30.06,East,85,1.0,2.0,92,-99.99,,,-99.99,,2013-04-09 10:04:00,
2013-04-09 06:13:00,67.0,65.0,30.06,NE,45,1.0,2.0,94,-99.99,,,-99.99,,2013-04-09 10:13:00,
2013-04-09 06:24:00,67.0,65.0,30.06,NE,45,1.0,2.0,94,-99.99,,,-99.99,,2013-04-09 10:24:00,
2013-04-09 06:33:00,66.0,65.0,30.06,East,99,1.0,1.0,95,-99.99,,,-99.99,,2013-04-09 10:33:00,
2013-04-09 06:43:00,66.0,65.0,30.07,East,89,1.0,2.0,96,-99.99,,,-99.99,,2013-04-09 10:43:00,
2013-04-09 06:54:00,66.0,65.0,30.07,SE,127,1.0,1.0,96,-99.99,,,-99.99,,2013-04-09 10:54:00,
2013-04-09 07:02:00,66.0,65.0,30.07,SE,127,1.0,1.0,96,-99.99,,,-99.99,,2013-04-09 11:02:00,
2013-04-09 07:12:00,66.0,65.0,30.08,ENE,57,1.0,3.0,96,-99.99,,,-99.99,,2013-04-09 11:12:00,
2013-04-09 07:22:00,66.0,65.0,30.08,ENE,57,1.0,3.0,96,-99.99,,,-99.99,,2013-04-09 11:22:00,
2013-04-09 07:32:00,66.0,65.0,30.08,ESE,123,1.0,3.0,97,-99.99,,,-99.99,,2013-04-09 11:32:00,
2013-04-09 07:42:00,66.0,65.0,30.08,SE,132,3.0,4.0,97,-99.99,,,-99.99,,2013-04-09 11:42:00,
2013-04-09 07:52:00,67.0,66.0,30.08,SE,124,3.0,6.0,95,-99.99,,,-99.99,,2013-04-09 11:52:00,
2013-04-09 08:02:00,67.0,66.0,30.08,SE,124,3.0,6.0,95,-99.99,,,-99.99,,2013-04-09 12:02:00,
2013-04-09 08:12:00,68.0,66.0,30.08,East,92,3.0,5.0,94,-99.99,,,-99.99,,2013-04-09 12:12:00,
2013-04-09 08:22:00,68.0,66.0,30.08,East,92,3.0,5.0,94,-99.99,,,-99.99,,2013-04-09 12:22:00,
2013-04-09 08:32:00,69.0,66.0,30.09,ESE,105,5.0,7.0,92,-99.99,,,-99.99,,2013-04-09 12:32:00,
2013-04-09 08:42:00,71.0,67.0,30.09,ESE,111,4.0,9.0,87,-99.99,,,-99.99,,2013-04-09 12:42:00,
2013-04-09 08:53:00,72.0,67.0,30.10,ESE,109,5.0,11.0,84,-99.99,,,-99.99,,2013-04-09 12:53:00,
2013-04-09 09:03:00,72.0,67.0,30.10,ESE,109,5.0,11.0,84,-99.99,,,-99.99,,2013-04-09 13:03:00,
2013-04-09 09:13:00,73.0,67.0,30.10,ESE,111,7.0,10.0,82,-99.99,,,-99.99,,2013-04-09 13:13:00,
2013-04-09 09:23:00,73.0,67.0,30.10,ESE,111,7.0,10.0,82,-99.99,,,-99.99,,2013-04-09 13:23:00,
2013-04-09 09:33:00,73.0,67.0,30.10,ESE,117,8.0,15.0,80,-99.99,,,-99.99,,2013-04-09 13:33:00,
2013-04-09 09:43:00,73.0,67.0,30.11,ESE,108,8.0,15.0,80,-99.99,,,-99.99,,2013-04-09 13:43:00,
2013-04-09 09:53:00,74.0,67.0,30.11,ESE,109,11.0,19.0,77,-99.99,,,-99.99,,2013-04-09 13:53:00,
2013-04-09 10:03:00,74.0,67.0,30.11,ESE,109,11.0,19.0,77,-99.99,,,-99.99,,2013-04-09 14:03:00,
2013-04-09 10:12:00,75.0,67.0,30.12,ESE,115,10.0,17.0,74,-99.99,,,-99.99,,2013-04-09 14:12:00,
2013-04-09 10:22:00,75.0,67.0,30.12,ESE,115,10.0,17.0,74,-99.99,,,-99.99,,2013-04-09 14:22:00,
2013-04-09 10:32:00,75.0,67.0,30.12,ESE,115,10.0,17.0,74,-99.99,,,-99.99,,2013-04-09 14:32:00,
2013-04-09 10:43:00,78.0,67.0,30.13,ESE,114,12.0,18.0,70,-99.99,,,-99.99,,2013-04-09 14:43:00,
2013-04-09 10:53:00,77.0,67.0,30.14,ESE,114,11.0,19.0,71,-99.99,,,-99.99,,2013-04-09 14:53:00,
2013-04-09 11:02:00,77.0,67.0,30.14,ESE,114,11.0,19.0,71,-99.99,,,-99.99,,2013-04-09 15:02:00,
2013-04-09 11:13:00,76.0,66.0,30.14,SE,124,12.0,19.0,70,-99.99,,,-99.99,,2013-04-09 15:13:00,
2013-04-09 11:23:00,76.0,66.0,30.14,SE,124,12.0,19.0,70,-99.99,,,-99.99,,2013-04-09 15:23:00,
2013-04-09 11:34:00,77.0,66.0,30.14,ESE,123,13.0,19.0,68,-99.99,,,-99.99,,2013-04-09 15:34:00,
2013-04-09 11:43:00,78.0,66.0,30.14,SE,131,12.0,22.0,67,-99.99,,,-99.99,,2013-04-09 15:43:00,
2013-04-09 11:54:00,78.0,67.0,30.14,ESE,111,13.0,19.0,66,-99.99,,,-99.99,,2013-04-09 15:54:00,
2013-04-09 12:03:00,78.0,67.0,30.14,ESE,111,13.0,19.0,66,-99.99,,,-99.99,,2013-04-09 16:03:00,
2013-04-09 12:13:00,78.0,67.0,30.14,ESE,114,11.0,17.0,68,-99.99,,,-99.99,,2013-04-09 16:13:00,
2013-04-09 12:23:00,78.0,67.0,30.14,ESE,114,11.0,17.0,68,-99.99,,,-99.99,,2013-04-09 16:23:00,
2013-04-09 12:33:00,78.0,67.0,30.14,ESE,107,12.0,19.0,68,-99.99,,,-99.99,,2013-04-09 16:33:00,
2013-04-09 12:42:00,77.0,66.0,30.14,ESE,112,12.0,18.0,68,-99.99,,,-99.99,,2013-04-09 16:42:00,
2013-04-09 12:54:00,77.0,67.0,30.14,East,99,12.0,20.0,69,-99.99,,,-99.99,,2013-04-09 16:54:00,
2013-04-09 13:03:00,77.0,67.0,30.14,East,99,12.0,20.0,69,-99.99,,,-99.99,,2013-04-09 17:03:00,
2013-04-09 13:13:00,77.0,67.0,30.13,ESE,107,13.0,21.0,69,-99.99,,,-99.99,,2013-04-09 17:13:00,
2013-04-09 13:23:00,77.0,67.0,30.13,ESE,107,13.0,21.0,69,-99.99,,,-99.99,,2013-04-09 17:23:00,
2013-04-09 13:32:00,77.0,67.0,30.13,ESE,107,13.0,21.0,69,-99.99,,,-99.99,,2013-04-09 17:32:00,
2013-04-09 13:43:00,78.0,67.0,30.13,ESE,105,14.0,21.0,67,-99.99,,,-99.99,,2013-04-09 17:43:00,
2013-04-09 13:55:00,78.0,67.0,30.13,ESE,112,12.0,18.0,66,-99.99,,,-99.99,,2013-04-09 17:55:00,
2013-04-09 14:03:00,78.0,67.0,30.13,ESE,112,12.0,18.0,66,-99.99,,,-99.99,,2013-04-09 18:03:00,
2013-04-09 14:13:00,79.0,66.0,30.13,ESE,108,11.0,20.0,64,-99.99,,,-99.99,,2013-04-09 18:13:00,
2013-04-09 14:23:00,79.0,66.0,30.13,ESE,108,11.0,20.0,64,-99.99,,,-99.99,,2013-04-09 18:23:00,
2013-04-09 14:33:00,78.0,66.0,30.12,East,101,11.0,16.0,66,-99.99,,,-99.99,,2013-04-09 18:33:00,
2013-04-09 14:43:00,78.0,67.0,30.11,ESE,105,12.0,19.0,66,-99.99,,,-99.99,,2013-04-09 18:43:00,
2013-04-09 14:53:00,78.0,67.0,30.11,ESE,105,12.0,19.0,66,-99.99,,,-99.99,,2013-04-09 18:53:00,
2013-04-09 15:03:00,78.0,66.0,30.11,ESE,102,12.0,22.0,65,-99.99,,,-99.99,,2013-04-09 19:03:00,
2013-04-09 15:12:00,78.0,66.0,30.11,ESE,102,12.0,22.0,65,-99.99,,,-99.99,,2013-04-09 19:12:00,
2013-04-09 15:23:00,78.0,66.0,30.11,ESE,102,12.0,22.0,65,-99.99,,,-99.99,,2013-04-09 19:23:00,
2013-04-09 15:32:00,79.0,66.0,30.10,ESE,106,14.0,22.0,63,-99.99,,,-99.99,,2013-04-09 19:32:00,
2013-04-09 15:42:00,79.0,66.0,30.10,ESE,106,14.0,22.0,63,-99.99,,,-99.99,,2013-04-09 19:42:00,
2013-04-09 15:53:00,78.0,66.0,30.09,ESE,108,12.0,21.0,65,-99.99,,,-99.99,,2013-04-09 19:53:00,
2013-04-09 16:03:00,78.0,66.0,30.09,ESE,108,12.0,21.0,65,-99.99,,,-99.99,,2013-04-09 20:03:00,
2013-04-09 16:12:00,78.0,66.0,30.09,ESE,111,11.0,17.0,64,-99.99,,,-99.99,,2013-04-09 20:12:00,
2013-04-09 16:23:00,78.0,66.0,30.09,ESE,111,11.0,17.0,64,-99.99,,,-99.99,,2013-04-09 20:23:00,
2013-04-09 16:34:00,78.0,65.0,30.08,ESE,104,11.0,20.0,64,-99.99,,,-99.99,,2013-04-09 20:34:00,
2013-04-09 16:43:00,78.0,65.0,30.08,ESE,109,10.0,18.0,63,-99.99,,,-99.99,,2013-04-09 20:43:00,
2013-04-09 16:53:00,78.0,65.0,30.08,ESE,105,10.0,17.0,64,-99.99,,,-99.99,,2013-04-09 20:53:00,
2013-04-09 17:03:00,78.0,65.0,30.08,ESE,105,10.0,17.0,64,-99.99,,,-99.99,,2013-04-09 21:03:00,
2013-04-09 17:14:00,78.0,65.0,30.08,ESE,105,10.0,17.0,64,-99.99,,,-99.99,,2013-04-09 21:14:00,
2013-04-09 17:23:00,78.0,65.0,30.08,ESE,105,10.0,17.0,64,-99.99,,,-99.99,,2013-04-09 21:23:00,
2013-04-09 17:33:00,79.0,64.0,30.08,ESE,111,11.0,18.0,59,-99.99,,,-99.99,,2013-04-09 21:33:00,
2013-04-09 17:42:00,79.0,64.0,30.08,ESE,111,11.0,18.0,59,-99.99,,,-99.99,,2013-04-09 21:42:00,
2013-04-09 17:53:00,78.0,63.0,30.08,East,99,10.0,16.0,60,-99.99,,,-99.99,,2013-04-09 21:53:00,
2013-04-09 18:03:00,78.0,63.0,30.08,East,99,10.0,16.0,60,-99.99,,,-99.99,,2013-04-09 22:03:00,
2013-04-09 18:13:00,77.0,64.0,30.08,East,94,10.0,15.0,63,-99.99,,,-99.99,,2013-04-09 22:13:00,
2013-04-09 18:23:00,77.0,64.0,30.08,East,94,10.0,15.0,63,-99.99,,,-99.99,,2013-04-09 22:23:00,
2013-04-09 18:33:00,77.0,64.0,30.08,East,96,9.0,14.0,63,-99.99,,,-99.99,,2013-04-09 22:33:00,
2013-04-09 18:42:00,76.0,65.0,30.09,East,96,9.0,13.0,66,-99.99,,,-99.99,,2013-04-09 22:42:00,
2013-04-09 18:54:00,76.0,65.0,30.09,East,95,8.0,13.0,68,-99.99,,,-99.99,,2013-04-09 22:54:00,
2013-04-09 19:03:00,76.0,65.0,30.09,East,95,8.0,13.0,68,-99.99,,,-99.99,,2013-04-09 23:03:00,
2013-04-09 19:13:00,75.0,67.0,30.09,ENE,75,9.0,14.0,74,-99.99,,,-99.99,,2013-04-09 23:13:00,
2013-04-09 19:23:00,75.0,67.0,30.09,ENE,75,9.0,14.0,74,-99.99,,,-99.99,,2013-04-09 23:23:00,
2013-04-09 19:32:00,75.0,67.0,30.09,ENE,75,9.0,14.0,74,-99.99,,,-99.99,,2013-04-09 23:32:00,
2013-04-09 19:42:00,74.0,67.0,30.09,East,81,12.0,19.0,78,-99.99,,,-99.99,,2013-04-09 23:42:00,
2013-04-09 19:53:00,71.0,68.0,30.09,ENE,69,6.0,10.0,90,-99.99,,,-99.99,,2013-04-09 23:53:00,
2013-04-09 20:03:00,71.0,68.0,30.09,ENE,69,6.0,10.0,90,-99.99,,,-99.99,,2013-04-10 00:03:00,
2013-04-09 20:13:00,71.0,68.0,30.09,ENE,69,6.0,10.0,90,-99.99,,,-99.99,,2013-04-10 00:13:00,
2013-04-09 20:23:00,71.0,69.0,30.09,ENE,65,5.0,10.0,91,-99.99,,,-99.99,,2013-04-10 00:23:00,
2013-04-09 20:33:00,72.0,68.0,30.09,ENE,77,7.0,12.0,89,-99.99,,,-99.99,,2013-04-10 00:33:00,
2013-04-09 20:42:00,72.0,68.0,30.09,East,86,8.0,12.0,86,-99.99,,,-99.99,,2013-04-10 00:42:00,
2013-04-09 20:53:00,72.0,68.0,30.09,East,83,8.0,13.0,86,-99.99,,,-99.99,,2013-04-10 00:53:00,
2013-04-09 21:02:00,72.0,67.0,30.09,East,80,7.0,13.0,86,-99.99,,,-99.99,,2013-04-10 01:02:00,
2013-04-09 21:12:00,72.0,67.0,30.09,East,80,7.0,13.0,86,-99.99,,,-99.99,,2013-04-10 01:12:00,
2013-04-09 21:23:00,72.0,67.0,30.09,East,80,7.0,13.0,86,-99.99,,,-99.99,,2013-04-10 01:23:00,
2013-04-09 21:32:00,72.0,67.0,30.11,East,89,7.0,13.0,84,-99.99,,,-99.99,,2013-04-10 01:32:00,
2013-04-09 21:43:00,72.0,67.0,30.11,East,89,7.0,13.0,84,-99.99,,,-99.99,,2013-04-10 01:43:00,
2013-04-09 21:53:00,72.0,68.0,30.11,ESE,103,9.0,14.0,87,-99.99,,,-99.99,,2013-04-10 01:53:00,
2013-04-09 22:03:00,70.0,68.0,30.10,East,85,7.0,12.0,91,-99.99,,,-99.99,,2013-04-10 02:03:00,
2013-04-09 22:13:00,70.0,68.0,30.10,East,85,7.0,12.0,91,-99.99,,,-99.99,,2013-04-10 02:13:00,
2013-04-09 22:23:00,70.0,68.0,30.10,East,85,7.0,12.0,91,-99.99,,,-99.99,,2013-04-10 02:23:00,
2013-04-09 22:33:00,71.0,68.0,30.11,ENE,74,5.0,9.0,91,-99.99,,,-99.99,,2013-04-10 02:33:00,
2013-04-09 22:43:00,71.0,68.0,30.11,ENE,74,5.0,9.0,91,-99.99,,,-99.99,,2013-04-10 02:43:00,
2013-04-09 22:53:00,71.0,68.0,30.10,East,82,6.0,9.0,90,-99.99,,,-99.99,,2013-04-10 02:53:00,
2013-04-09 23:03:00,71.0,67.0,30.10,East,85,4.0,7.0,88,-99.99,,,-99.99,,2013-04-10 03:03:00,
2013-04-09 23:12:00,71.0,67.0,30.10,East,85,4.0,7.0,88,-99.99,,,-99.99,,2013-04-10 03:12:00,
2013-04-09 23:22:00,71.0,67.0,30.10,East,85,4.0,7.0,88,-99.99,,,-99.99,,2013-04-10 03:22:00,
2013-04-09 23:33:00,71.0,67.0,30.10,ENE,78,4.0,8.0,86,-99.99,,,-99.99,,2013-04-10 03:33:00,
2013-04-09 23:43:00,71.0,67.0,30.10,ENE,78,4.0,8.0,86,-99.99,,,-99.99,,2013-04-10 03:43:00,
2013-04-09 23:53:00,71.0,67.0,30.10,ENE,75,4.0,5.0,87,-99.99,,,-99.99,,2013-04-10 03:53:00,